Location: Molveno
(46.1500°N, 10.9667°E)
Time: 06:47:55
(UTC+00:00)

Cosmos 2074 Rocket - Pass Details

Date: 05 July 2020
Orbit: 967 x 986 km, 82.9° (Epoch: 06 August)

Event Time Altitude Azimuth Distance (km) Brightness Sun altitude
Exits shadow 21:29:14 20° 183° (S) 2,066 5.2 -16.7°
Maximum altitude 21:33:42 85° 97° (E) 982 3.9 -17.0°
Drops below altitude 10° 21:39:57 10° 10° (N) 2,722 7.2 -17.5°
Sets 21:42:27 0° 10° (N) 3,672 8.0 -17.6°
